Time,TemperatureF,DewpointF,PressureIn,WindDirection,WindDirectionDegrees,WindSpeedMPH,WindSpeedGustMPH,Humidity,HourlyPrecipIn,Conditions,Clouds,dailyrainin,SoftwareType,DateUTC
2013-02-14 00:02:00,67.0,-99.9,29.99,NW,322,7.0,9.0,-999,-99.99,,,-99.99,,2013-02-14 05:02:00,
2013-02-14 00:11:00,67.0,-99.9,29.99,NW,319,4.0,9.0,-999,-99.99,,,-99.99,,2013-02-14 05:11:00,
2013-02-14 00:22:00,67.0,-99.9,30.00,NNW,330,4.0,8.0,-999,-99.99,,,-99.99,,2013-02-14 05:22:00,
2013-02-14 00:32:00,67.0,-99.9,29.99,North,349,5.0,6.0,-999,-99.99,,,-99.99,,2013-02-14 05:32:00,
2013-02-14 00:42:00,67.0,-99.9,30.00,NNW,348,3.0,5.0,-999,-99.99,,,-99.99,,2013-02-14 05:42:00,
2013-02-14 00:52:00,66.0,-99.9,29.99,ESE,122,4.0,5.0,-999,-99.99,,,-99.99,,2013-02-14 05:52:00,
2013-02-14 01:02:00,65.0,-99.9,29.98,ESE,105,3.0,4.0,-999,-99.99,,,-99.99,,2013-02-14 06:02:00,
2013-02-14 01:11:00,65.0,-99.9,29.97,SE,126,2.0,4.0,-999,-99.99,,,-99.99,,2013-02-14 06:11:00,
2013-02-14 01:22:00,65.0,-99.9,29.97,SE,134,1.0,2.0,-999,-99.99,,,-99.99,,2013-02-14 06:22:00,
2013-02-14 01:32:00,64.0,-99.9,29.97,SE,143,3.0,4.0,-999,-99.99,,,-99.99,,2013-02-14 06:32:00,
2013-02-14 01:42:00,64.0,-99.9,29.98,SSE,164,2.0,3.0,-999,-99.99,,,-99.99,,2013-02-14 06:42:00,
2013-02-14 01:52:00,64.0,-99.9,29.99,East,94,2.0,4.0,-999,-99.99,,,-99.99,,2013-02-14 06:52:00,
2013-02-14 02:01:00,65.0,-99.9,29.99,SE,144,2.0,4.0,-999,-99.99,,,-99.99,,2013-02-14 07:01:00,
2013-02-14 02:11:00,64.0,-99.9,29.98,ESE,123,4.0,5.0,-999,-99.99,,,-99.99,,2013-02-14 07:11:00,
2013-02-14 02:22:00,63.0,-99.9,29.98,SSE,153,7.0,8.0,-999,-99.99,,,-99.99,,2013-02-14 07:22:00,
2013-02-14 02:32:00,63.0,-99.9,29.97,ESE,120,5.0,8.0,-999,-99.99,,,-99.99,,2013-02-14 07:32:00,
2013-02-14 02:42:00,62.0,-99.9,29.96,SSE,147,2.0,6.0,-999,-99.99,,,-99.99,,2013-02-14 07:42:00,
2013-02-14 02:52:00,62.0,-99.9,29.95,ENE,76,0.0,3.0,-999,-99.99,,,-99.99,,2013-02-14 07:52:00,
2013-02-14 03:01:00,63.0,-99.9,29.95,North,356,1.0,2.0,-999,-99.99,,,-99.99,,2013-02-14 08:01:00,
2013-02-14 03:11:00,63.0,-99.9,29.95,SSE,148,2.0,3.0,-999,-99.99,,,-99.99,,2013-02-14 08:11:00,
2013-02-14 03:22:00,63.0,-99.9,29.94,ESE,105,4.0,6.0,-999,-99.99,,,-99.99,,2013-02-14 08:22:00,
2013-02-14 03:32:00,64.0,-99.9,29.94,SSE,165,4.0,6.0,-999,-99.99,,,-99.99,,2013-02-14 08:32:00,
2013-02-14 03:43:00,64.0,-99.9,29.95,SE,141,3.0,4.0,-999,-99.99,,,-99.99,,2013-02-14 08:43:00,
2013-02-14 03:52:00,64.0,-99.9,29.96,SSE,158,4.0,6.0,-999,-99.99,,,-99.99,,2013-02-14 08:52:00,
2013-02-14 04:02:00,64.0,-99.9,29.95,SE,141,5.0,6.0,-999,-99.99,,,-99.99,,2013-02-14 09:02:00,
2013-02-14 04:11:00,64.0,-99.9,29.95,ESE,106,2.0,6.0,-999,-99.99,,,-99.99,,2013-02-14 09:11:00,
2013-02-14 04:22:00,64.0,-99.9,29.94,ESE,108,3.0,5.0,-999,-99.99,,,-99.99,,2013-02-14 09:22:00,
2013-02-14 04:32:00,64.0,-99.9,29.94,ENE,67,1.0,3.0,-999,-99.99,,,-99.99,,2013-02-14 09:32:00,
2013-02-14 04:42:00,64.0,-99.9,29.94,NNE,24,2.0,3.0,-999,-99.99,,,-99.99,,2013-02-14 09:42:00,
2013-02-14 04:52:00,64.0,-99.9,29.95,NE,47,2.0,3.0,-999,-99.99,,,-99.99,,2013-02-14 09:52:00,
2013-02-14 05:02:00,65.0,-99.9,29.94,NE,46,0.0,2.0,-999,-99.99,,,-99.99,,2013-02-14 10:02:00,
2013-02-14 05:11:00,65.0,-99.9,29.94,NE,38,2.0,2.0,-999,-99.99,,,-99.99,,2013-02-14 10:11:00,
2013-02-14 05:22:00,65.0,-99.9,29.94,NE,41,2.0,2.0,-999,-99.99,,,-99.99,,2013-02-14 10:22:00,
2013-02-14 05:32:00,65.0,-99.9,29.94,NE,36,2.0,3.0,-999,-99.99,,,-99.99,,2013-02-14 10:32:00,
2013-02-14 05:42:00,65.0,-99.9,29.94,NE,55,2.0,3.0,-999,-99.99,,,-99.99,,2013-02-14 10:42:00,
2013-02-14 05:52:00,65.0,-99.9,29.94,NNE,28,7.0,10.0,-999,-99.99,,,-99.99,,2013-02-14 10:52:00,
2013-02-14 06:02:00,65.0,-99.9,29.94,NNE,32,7.0,9.0,-999,-99.99,,,-99.99,,2013-02-14 11:02:00,
2013-02-14 06:11:00,65.0,-99.9,29.95,NNE,33,9.0,10.0,-999,-99.99,,,-99.99,,2013-02-14 11:11:00,
2013-02-14 06:22:00,65.0,-99.9,29.94,NE,41,4.0,8.0,-999,-99.99,,,-99.99,,2013-02-14 11:22:00,
2013-02-14 06:32:00,65.0,-99.9,29.95,NE,39,6.0,9.0,-999,-99.99,,,-99.99,,2013-02-14 11:32:00,
2013-02-14 06:42:00,65.0,-99.9,29.95,NE,49,5.0,7.0,-999,-99.99,,,-99.99,,2013-02-14 11:42:00,
2013-02-14 06:52:00,65.0,-99.9,29.96,NE,41,7.0,11.0,-999,-99.99,,,-99.99,,2013-02-14 11:52:00,
2013-02-14 07:02:00,65.0,-99.9,29.96,North,6,10.0,12.0,-999,-99.99,,,-99.99,,2013-02-14 12:02:00,
2013-02-14 07:12:00,64.0,-99.9,29.96,NE,38,6.0,11.0,-999,-99.99,,,-99.99,,2013-02-14 12:12:00,
2013-02-14 07:22:00,64.0,-99.9,29.97,NE,41,6.0,7.0,-999,-99.99,,,-99.99,,2013-02-14 12:22:00,
2013-02-14 07:32:00,64.0,-99.9,29.97,NE,42,6.0,8.0,-999,-99.99,,,-99.99,,2013-02-14 12:32:00,
2013-02-14 07:42:00,64.0,-99.9,29.98,ENE,77,4.0,7.0,-999,-99.99,,,-99.99,,2013-02-14 12:42:00,
2013-02-14 07:53:00,64.0,-99.9,29.98,East,89,2.0,4.0,-999,-99.99,,,-99.99,,2013-02-14 12:53:00,
2013-02-14 08:02:00,64.0,-99.9,29.99,East,91,3.0,4.0,-999,-99.99,,,-99.99,,2013-02-14 13:02:00,
2013-02-14 08:11:00,64.0,-99.9,29.99,East,90,4.0,5.0,-999,-99.99,,,-99.99,,2013-02-14 13:11:00,
2013-02-14 08:21:00,64.0,-99.9,29.99,ESE,110,2.0,3.0,-999,-99.99,,,-99.99,,2013-02-14 13:21:00,
2013-02-14 08:32:00,64.0,-99.9,29.99,East,101,2.0,3.0,-999,-99.99,,,-99.99,,2013-02-14 13:32:00,
2013-02-14 08:42:00,64.0,-99.9,30.00,East,93,3.0,4.0,-999,-99.99,,,-99.99,,2013-02-14 13:42:00,
2013-02-14 08:52:00,64.0,-99.9,29.99,ESE,104,3.0,4.0,-999,-99.99,,,-99.99,,2013-02-14 13:52:00,
2013-02-14 09:01:00,64.0,-99.9,30.00,East,82,3.0,4.0,-999,-99.99,,,-99.99,,2013-02-14 14:01:00,
2013-02-14 09:11:00,64.0,-99.9,30.00,ENE,57,3.0,5.0,-999,-99.99,,,-99.99,,2013-02-14 14:11:00,
2013-02-14 09:22:00,64.0,-99.9,30.01,NE,35,5.0,7.0,-999,-99.99,,,-99.99,,2013-02-14 14:22:00,
2013-02-14 09:32:00,64.0,-99.9,30.02,NNE,15,9.0,10.0,-999,-99.99,,,-99.99,,2013-02-14 14:32:00,
2013-02-14 09:42:00,64.0,-99.9,30.02,NNE,28,9.0,11.0,-999,-99.99,,,-99.99,,2013-02-14 14:42:00,
2013-02-14 09:52:00,64.0,-99.9,30.02,NNE,25,9.0,10.0,-999,-99.99,,,-99.99,,2013-02-14 14:52:00,
2013-02-14 10:02:00,64.0,-99.9,30.04,NNE,14,9.0,10.0,-999,-99.99,,,-99.99,,2013-02-14 15:02:00,
2013-02-14 10:11:00,64.0,-99.9,30.03,NNE,15,11.0,13.0,-999,-99.99,,,-99.99,,2013-02-14 15:11:00,
2013-02-14 10:22:00,64.0,-99.9,30.05,North,359,15.0,17.0,-999,-99.99,,,-99.99,,2013-02-14 15:22:00,
2013-02-14 10:32:00,64.0,-99.9,30.06,NNW,347,19.0,22.0,-999,-99.99,,,-99.99,,2013-02-14 15:32:00,
2013-02-14 10:42:00,63.0,-99.9,30.06,NNW,347,21.0,23.0,-999,-99.99,,,-99.99,,2013-02-14 15:42:00,
2013-02-14 10:52:00,63.0,-99.9,30.06,North,356,21.0,24.0,-999,-99.99,,,-99.99,,2013-02-14 15:52:00,
2013-02-14 11:02:00,63.0,-99.9,30.06,North,354,21.0,24.0,-999,-99.99,,,-99.99,,2013-02-14 16:02:00,
2013-02-14 11:11:00,63.0,-99.9,30.06,North,352,19.0,23.0,-999,-99.99,,,-99.99,,2013-02-14 16:11:00,
2013-02-14 11:22:00,62.0,-99.9,30.07,North,353,23.0,24.0,-999,-99.99,,,-99.99,,2013-02-14 16:22:00,
2013-02-14 11:32:00,63.0,-99.9,30.06,North,354,19.0,23.0,-999,-99.99,,,-99.99,,2013-02-14 16:32:00,
2013-02-14 11:42:00,63.0,-99.9,30.06,North,354,21.0,24.0,-999,-99.99,,,-99.99,,2013-02-14 16:42:00,
2013-02-14 11:52:00,62.0,-99.9,30.07,North,360,23.0,27.0,-999,-99.99,,,-99.99,,2013-02-14 16:52:00,
2013-02-14 12:01:00,62.0,-99.9,30.05,North,3,18.0,25.0,-999,-99.99,,,-99.99,,2013-02-14 17:01:00,
2013-02-14 12:11:00,61.0,-99.9,30.06,North,354,19.0,22.0,-999,-99.99,,,-99.99,,2013-02-14 17:11:00,
2013-02-14 12:22:00,61.0,-99.9,30.06,NNE,18,18.0,21.0,-999,-99.99,,,-99.99,,2013-02-14 17:22:00,
2013-02-14 12:32:00,61.0,-99.9,30.06,NNE,22,16.0,20.0,-999,-99.99,,,-99.99,,2013-02-14 17:32:00,
2013-02-14 12:42:00,61.0,-99.9,30.04,ENE,69,8.0,11.0,-999,-99.99,,,-99.99,,2013-02-14 17:42:00,
2013-02-14 12:52:00,61.0,-99.9,30.04,ESE,104,6.0,11.0,-999,-99.99,,,-99.99,,2013-02-14 17:52:00,
2013-02-14 13:02:00,60.0,-99.9,30.04,East,98,6.0,9.0,-999,-99.99,,,-99.99,,2013-02-14 18:02:00,
2013-02-14 13:11:00,60.0,-99.9,30.03,ESE,102,8.0,10.0,-999,-99.99,,,-99.99,,2013-02-14 18:11:00,
2013-02-14 13:23:00,60.0,-99.9,30.01,ENE,59,9.0,11.0,-999,-99.99,,,-99.99,,2013-02-14 18:23:00,
2013-02-14 13:32:00,60.0,-99.9,30.00,ENE,73,8.0,10.0,-999,-99.99,,,-99.99,,2013-02-14 18:32:00,
2013-02-14 13:42:00,60.0,-99.9,29.99,East,90,8.0,10.0,-999,-99.99,,,-99.99,,2013-02-14 18:42:00,
2013-02-14 13:52:00,60.0,-99.9,29.99,East,90,8.0,9.0,-999,-99.99,,,-99.99,,2013-02-14 18:52:00,
2013-02-14 14:02:00,60.0,-99.9,29.99,ESE,112,8.0,10.0,-999,-99.99,,,-99.99,,2013-02-14 19:02:00,
2013-02-14 14:11:00,61.0,-99.9,29.98,ESE,114,4.0,7.0,-999,-99.99,,,-99.99,,2013-02-14 19:11:00,
2013-02-14 14:22:00,61.0,-99.9,29.99,SE,134,5.0,7.0,-999,-99.99,,,-99.99,,2013-02-14 19:22:00,
2013-02-14 14:32:00,61.0,-99.9,29.99,NE,47,4.0,5.0,-999,-99.99,,,-99.99,,2013-02-14 19:32:00,
2013-02-14 14:42:00,61.0,-99.9,29.98,NNE,33,4.0,6.0,-999,-99.99,,,-99.99,,2013-02-14 19:42:00,
2013-02-14 14:52:00,61.0,-99.9,29.99,NE,52,2.0,3.0,-999,-99.99,,,-99.99,,2013-02-14 19:52:00,
2013-02-14 15:01:00,61.0,-99.9,29.98,East,101,3.0,4.0,-999,-99.99,,,-99.99,,2013-02-14 20:01:00,
2013-02-14 15:11:00,61.0,-99.9,29.98,ENE,76,4.0,5.0,-999,-99.99,,,-99.99,,2013-02-14 20:11:00,
2013-02-14 15:22:00,61.0,-99.9,29.98,ESE,102,1.0,4.0,-999,-99.99,,,-99.99,,2013-02-14 20:22:00,
2013-02-14 15:32:00,61.0,-99.9,29.99,SSE,153,1.0,2.0,-999,-99.99,,,-99.99,,2013-02-14 20:32:00,
2013-02-14 15:42:00,61.0,-99.9,29.99,ESE,109,2.0,3.0,-999,-99.99,,,-99.99,,2013-02-14 20:42:00,
2013-02-14 15:52:00,61.0,-99.9,29.97,East,93,3.0,4.0,-999,-99.99,,,-99.99,,2013-02-14 20:52:00,
2013-02-14 16:02:00,61.0,-99.9,29.97,East,87,1.0,2.0,-999,-99.99,,,-99.99,,2013-02-14 21:02:00,
2013-02-14 16:11:00,61.0,-99.9,29.97,North,359,2.0,3.0,-999,-99.99,,,-99.99,,2013-02-14 21:11:00,
2013-02-14 16:22:00,61.0,-99.9,29.98,North,350,5.0,8.0,-999,-99.99,,,-99.99,,2013-02-14 21:22:00,
2013-02-14 16:32:00,61.0,-99.9,29.98,NNW,346,7.0,9.0,-999,-99.99,,,-99.99,,2013-02-14 21:32:00,
2013-02-14 16:42:00,61.0,-99.9,29.99,North,9,9.0,11.0,-999,-99.99,,,-99.99,,2013-02-14 21:42:00,
2013-02-14 16:52:00,61.0,-99.9,29.99,NNW,346,5.0,7.0,-999,-99.99,,,-99.99,,2013-02-14 21:52:00,
2013-02-14 17:02:00,61.0,-99.9,29.99,NNE,27,6.0,8.0,-999,-99.99,,,-99.99,,2013-02-14 22:02:00,
2013-02-14 17:11:00,61.0,-99.9,29.99,NE,42,8.0,10.0,-999,-99.99,,,-99.99,,2013-02-14 22:11:00,
2013-02-14 17:21:00,61.0,-99.9,30.00,NE,49,9.0,10.0,-999,-99.99,,,-99.99,,2013-02-14 22:21:00,
2013-02-14 17:32:00,61.0,-99.9,29.98,North,358,14.0,16.0,-999,-99.99,,,-99.99,,2013-02-14 22:32:00,
2013-02-14 17:42:00,61.0,-99.9,30.00,North,356,15.0,17.0,-999,-99.99,,,-99.99,,2013-02-14 22:42:00,
2013-02-14 17:52:00,61.0,-99.9,29.99,North,5,16.0,18.0,-999,-99.99,,,-99.99,,2013-02-14 22:52:00,
2013-02-14 18:01:00,61.0,-99.9,29.99,NNE,15,13.0,15.0,-999,-99.99,,,-99.99,,2013-02-14 23:01:00,
2013-02-14 18:11:00,61.0,-99.9,30.00,North,352,14.0,16.0,-999,-99.99,,,-99.99,,2013-02-14 23:11:00,
2013-02-14 18:22:00,61.0,-99.9,30.01,North,350,19.0,20.0,-999,-99.99,,,-99.99,,2013-02-14 23:22:00,
2013-02-14 18:32:00,61.0,-99.9,30.01,North,349,20.0,22.0,-999,-99.99,,,-99.99,,2013-02-14 23:32:00,
2013-02-14 18:42:00,60.0,-99.9,30.02,NNW,344,23.0,25.0,-999,-99.99,,,-99.99,,2013-02-14 23:42:00,
2013-02-14 18:52:00,60.0,-99.9,30.04,North,352,21.0,25.0,-999,-99.99,,,-99.99,,2013-02-14 23:52:00,
2013-02-14 19:02:00,60.0,-99.9,30.03,North,2,19.0,22.0,-999,-99.99,,,-99.99,,2013-02-15 00:02:00,
2013-02-14 19:11:00,60.0,-99.9,30.02,North,1,17.0,21.0,-999,-99.99,,,-99.99,,2013-02-15 00:11:00,
2013-02-14 19:22:00,60.0,-99.9,30.02,NNE,12,16.0,20.0,-999,-99.99,,,-99.99,,2013-02-15 00:22:00,
2013-02-14 19:32:00,60.0,-99.9,30.01,NE,51,9.0,14.0,-999,-99.99,,,-99.99,,2013-02-15 00:32:00,
2013-02-14 19:42:00,60.0,-99.9,30.00,ENE,76,8.0,11.0,-999,-99.99,,,-99.99,,2013-02-15 00:42:00,
2013-02-14 19:52:00,60.0,-99.9,29.99,East,80,7.0,13.0,-999,-99.99,,,-99.99,,2013-02-15 00:52:00,
2013-02-14 20:02:00,60.0,-99.9,30.01,ENE,75,7.0,9.0,-999,-99.99,,,-99.99,,2013-02-15 01:02:00,
2013-02-14 20:11:00,60.0,-99.9,30.01,NNE,28,5.0,8.0,-999,-99.99,,,-99.99,,2013-02-15 01:11:00,
2013-02-14 20:22:00,60.0,-99.9,30.03,NNE,30,6.0,8.0,-999,-99.99,,,-99.99,,2013-02-15 01:22:00,
2013-02-14 20:32:00,59.0,-99.9,30.01,NNE,26,9.0,10.0,-999,-99.99,,,-99.99,,2013-02-15 01:32:00,
2013-02-14 20:42:00,60.0,-99.9,30.02,NE,34,8.0,9.0,-999,-99.99,,,-99.99,,2013-02-15 01:42:00,
2013-02-14 20:52:00,60.0,-99.9,30.01,ENE,78,6.0,8.0,-999,-99.99,,,-99.99,,2013-02-15 01:52:00,
2013-02-14 21:01:00,59.0,-99.9,30.00,ESE,111,6.0,12.0,-999,-99.99,,,-99.99,,2013-02-15 02:01:00,
2013-02-14 21:11:00,59.0,-99.9,30.00,ESE,119,6.0,9.0,-999,-99.99,,,-99.99,,2013-02-15 02:11:00,
2013-02-14 21:21:00,59.0,-99.9,30.01,SE,141,6.0,9.0,-999,-99.99,,,-99.99,,2013-02-15 02:21:00,
2013-02-14 21:32:00,59.0,-99.9,30.01,ESE,111,3.0,8.0,-999,-99.99,,,-99.99,,2013-02-15 02:32:00,
2013-02-14 21:42:00,59.0,-99.9,30.02,East,89,3.0,4.0,-999,-99.99,,,-99.99,,2013-02-15 02:42:00,
2013-02-14 21:52:00,59.0,-99.9,30.03,NNE,18,4.0,5.0,-999,-99.99,,,-99.99,,2013-02-15 02:52:00,
2013-02-14 22:02:00,60.0,-99.9,30.04,NNW,335,6.0,8.0,-999,-99.99,,,-99.99,,2013-02-15 03:02:00,
2013-02-14 22:11:00,60.0,-99.9,30.04,NNW,335,6.0,8.0,-999,-99.99,,,-99.99,,2013-02-15 03:11:00,
2013-02-14 22:22:00,60.0,-99.9,30.06,NNW,329,9.0,12.0,-999,-99.99,,,-99.99,,2013-02-15 03:22:00,
2013-02-14 22:32:00,60.0,-99.9,30.05,North,3,5.0,7.0,-999,-99.99,,,-99.99,,2013-02-15 03:32:00,
2013-02-14 22:42:00,60.0,-99.9,30.04,ENE,60,3.0,5.0,-999,-99.99,,,-99.99,,2013-02-15 03:42:00,
2013-02-14 22:52:00,60.0,-99.9,30.03,ESE,108,4.0,6.0,-999,-99.99,,,-99.99,,2013-02-15 03:52:00,
2013-02-14 23:02:00,60.0,-99.9,30.01,ESE,122,3.0,6.0,-999,-99.99,,,-99.99,,2013-02-15 04:02:00,
2013-02-14 23:11:00,60.0,-99.9,30.02,ESE,104,7.0,8.0,-999,-99.99,,,-99.99,,2013-02-15 04:11:00,
2013-02-14 23:22:00,60.0,-99.9,30.00,ESE,112,1.0,6.0,-999,-99.99,,,-99.99,,2013-02-15 04:22:00,
2013-02-14 23:32:00,60.0,-99.9,30.02,NW,317,4.0,4.0,-999,-99.99,,,-99.99,,2013-02-15 04:32:00,
2013-02-14 23:42:00,61.0,-99.9,30.03,NNW,345,5.0,6.0,-999,-99.99,,,-99.99,,2013-02-15 04:42:00,
2013-02-14 23:52:00,61.0,-99.9,30.03,NNW,342,6.0,9.0,-999,-99.99,,,-99.99,,2013-02-15 04:52:00,